User: anonymous   Login
Location: Hurstbourne Priors
(51.2000°N, 1.3667°W)
Time: 10:45:44
(UTC+00:00)
Language:

Cosmos 1741 Rocket - Orbit

View from above orbital plane
View from above orbital plane
View from above satellite
View from above satellite

Ground track
Ground track

The orbit data is extracted from the following two-line orbital elements,

1 16682U 86030B   20191.13923307  .00000044  00000-0  24143-4 0  9997
2 16682  74.0273 333.1376 0014228  35.0469 137.5774 14.35908911791639
Epoch (UTC): 09 July 2020 03:20:29
Eccentricity: 0.0014228
inclination: 74.0273°
perigee height: 762 km
apogee height: 782 km
right ascension of ascending node: 333.1376°
argument of perigee: 35.0469°
revolutions per day: 14.35908911
mean anomaly at epoch: 137.5774°
orbit number at epoch: 79163

The dashed part of the orbit path shows where the satellite is in the earth's shadow,  

DLR